Time,TemperatureF,DewpointF,PressureIn,WindDirection,WindDirectionDegrees,WindSpeedMPH,WindSpeedGustMPH,Humidity,HourlyPrecipIn,Conditions,Clouds,dailyrainin,SoftwareType,DateUTC
2013-02-20 00:00:00,-15.5,-99.9,30.53,North,-999,0.0,0.0,-999,0.00,,,-99.99,FreeWX-Wi 1.03,2013-02-20 06:00:00,
2013-02-20 00:05:00,-15.3,-99.9,30.53,North,-999,0.0,0.0,-999,0.00,,,-99.99,FreeWX-Wi 1.03,2013-02-20 06:05:00,
2013-02-20 00:10:00,-15.3,-99.9,30.53,North,-999,0.0,0.0,-999,0.00,,,-99.99,FreeWX-Wi 1.03,2013-02-20 06:10:00,
2013-02-20 00:15:00,-15.3,-99.9,30.53,North,-999,0.0,0.0,-999,0.00,,,-99.99,FreeWX-Wi 1.03,2013-02-20 06:15:00,
2013-02-20 00:20:00,-15.3,-99.9,30.53,North,-999,0.0,0.0,-999,0.00,,,-99.99,FreeWX-Wi 1.03,2013-02-20 06:20:00,
2013-02-20 00:25:00,-15.7,-99.9,30.56,North,-999,0.0,0.0,-999,0.00,,,-99.99,FreeWX-Wi 1.03,2013-02-20 06:25:00,
2013-02-20 00:30:00,-16.1,-99.9,30.56,North,-999,0.0,0.0,-999,0.00,,,-99.99,FreeWX-Wi 1.03,2013-02-20 06:30:00,
2013-02-20 00:35:00,-15.9,-99.9,30.56,North,-999,0.0,0.0,-999,0.00,,,-99.99,FreeWX-Wi 1.03,2013-02-20 06:35:00,
2013-02-20 00:40:00,-16.1,-99.9,30.56,North,-999,0.0,0.0,-999,0.00,,,-99.99,FreeWX-Wi 1.03,2013-02-20 06:40:00,
2013-02-20 00:45:00,-16.1,-99.9,30.56,North,-999,0.0,0.0,-999,0.00,,,-99.99,FreeWX-Wi 1.03,2013-02-20 06:45:00,
2013-02-20 00:50:00,-15.7,-99.9,30.56,North,-999,0.0,0.0,-999,0.00,,,-99.99,FreeWX-Wi 1.03,2013-02-20 06:50:00,
2013-02-20 00:55:00,-16.1,-99.9,30.56,North,-999,0.0,0.0,-999,0.00,,,-99.99,FreeWX-Wi 1.03,2013-02-20 06:55:00,
2013-02-20 01:00:00,-16.1,-99.9,30.56,North,-999,0.0,0.0,-999,0.00,,,-99.99,FreeWX-Wi 1.03,2013-02-20 07:00:00,
2013-02-20 01:05:00,-15.9,-99.9,30.56,North,-999,0.0,0.0,-999,0.00,,,-99.99,FreeWX-Wi 1.03,2013-02-20 07:05:00,
2013-02-20 01:10:00,-15.7,-99.9,30.56,North,-999,0.0,0.0,-999,0.00,,,-99.99,FreeWX-Wi 1.03,2013-02-20 07:10:00,
2013-02-20 01:15:00,-15.5,-99.9,30.56,North,-999,0.0,0.0,-999,0.00,,,-99.99,FreeWX-Wi 1.03,2013-02-20 07:15:00,
2013-02-20 01:20:00,-15.7,-99.9,30.56,North,-999,0.0,0.0,-999,0.00,,,-99.99,FreeWX-Wi 1.03,2013-02-20 07:20:00,
2013-02-20 01:25:00,-15.9,-99.9,30.56,North,-999,0.0,0.0,-999,0.00,,,-99.99,FreeWX-Wi 1.03,2013-02-20 07:25:00,
2013-02-20 01:30:00,-16.1,-99.9,30.56,North,-999,0.0,0.0,-999,0.00,,,-99.99,FreeWX-Wi 1.03,2013-02-20 07:30:00,
2013-02-20 01:35:00,-16.1,-99.9,30.56,North,-999,0.0,0.0,-999,0.00,,,-99.99,FreeWX-Wi 1.03,2013-02-20 07:35:00,
2013-02-20 01:40:00,-16.1,-99.9,30.56,North,-999,0.0,0.0,-999,0.00,,,-99.99,FreeWX-Wi 1.03,2013-02-20 07:40:00,
2013-02-20 01:45:00,-16.1,-99.9,30.56,North,-999,0.0,0.0,-999,0.00,,,-99.99,FreeWX-Wi 1.03,2013-02-20 07:45:00,
2013-02-20 01:50:00,-15.9,-99.9,30.56,North,-999,0.0,0.0,-999,0.00,,,-99.99,FreeWX-Wi 1.03,2013-02-20 07:50:00,
2013-02-20 01:55:00,-15.9,-99.9,30.56,North,-999,0.0,0.0,-999,0.00,,,-99.99,FreeWX-Wi 1.03,2013-02-20 07:55:00,
2013-02-20 02:00:00,-15.9,-99.9,30.56,North,-999,0.0,0.0,-999,0.00,,,-99.99,FreeWX-Wi 1.03,2013-02-20 08:00:00,
2013-02-20 02:05:00,-16.1,-99.9,30.56,North,-999,0.0,0.0,-999,0.00,,,-99.99,FreeWX-Wi 1.03,2013-02-20 08:05:00,
2013-02-20 02:10:00,-16.4,-99.9,30.56,North,-999,0.0,0.0,-999,0.00,,,-99.99,FreeWX-Wi 1.03,2013-02-20 08:10:00,
2013-02-20 02:15:00,-16.6,-99.9,30.56,North,-999,0.0,0.0,-999,0.00,,,-99.99,FreeWX-Wi 1.03,2013-02-20 08:15:00,
2013-02-20 02:20:00,-17.0,-99.9,30.56,North,-999,0.0,0.0,-999,0.00,,,-99.99,FreeWX-Wi 1.03,2013-02-20 08:20:00,
2013-02-20 02:25:00,-17.3,-99.9,30.56,North,-999,0.0,0.0,-999,0.00,,,-99.99,FreeWX-Wi 1.03,2013-02-20 08:25:00,
2013-02-20 02:30:00,-17.7,-99.9,30.56,North,-999,0.0,0.0,-999,0.00,,,-99.99,FreeWX-Wi 1.03,2013-02-20 08:30:00,
2013-02-20 02:35:00,-17.9,-99.9,30.56,North,-999,0.0,0.0,-999,0.00,,,-99.99,FreeWX-Wi 1.03,2013-02-20 08:35:00,
2013-02-20 02:40:00,-18.2,-99.9,30.56,North,-999,0.0,0.0,-999,0.00,,,-99.99,FreeWX-Wi 1.03,2013-02-20 08:40:00,
2013-02-20 02:45:00,-18.4,-99.9,30.56,North,-999,0.0,0.0,-999,0.00,,,-99.99,FreeWX-Wi 1.03,2013-02-20 08:45:00,
2013-02-20 02:50:00,-18.4,-99.9,30.56,North,-999,0.0,0.0,-999,0.00,,,-99.99,FreeWX-Wi 1.03,2013-02-20 08:50:00,
2013-02-20 02:55:00,-18.2,-99.9,30.56,North,-999,0.0,0.0,-999,0.00,,,-99.99,FreeWX-Wi 1.03,2013-02-20 08:55:00,
2013-02-20 03:00:00,-18.2,-99.9,30.56,North,-999,0.0,0.0,-999,0.00,,,-99.99,FreeWX-Wi 1.03,2013-02-20 09:00:00,
2013-02-20 03:05:00,-18.0,-99.9,30.56,North,-999,0.0,0.0,-999,0.00,,,-99.99,FreeWX-Wi 1.03,2013-02-20 09:05:00,
2013-02-20 03:10:00,-17.9,-99.9,30.53,North,-999,0.0,0.0,-999,0.00,,,-99.99,FreeWX-Wi 1.03,2013-02-20 09:10:00,
2013-02-20 03:15:00,-17.9,-99.9,30.53,North,-999,0.0,0.0,-999,0.00,,,-99.99,FreeWX-Wi 1.03,2013-02-20 09:15:00,
2013-02-20 03:20:00,-18.0,-99.9,30.53,North,-999,0.0,0.0,-999,0.00,,,-99.99,FreeWX-Wi 1.03,2013-02-20 09:20:00,
2013-02-20 03:25:00,-18.2,-99.9,30.56,North,-999,0.0,0.0,-999,0.00,,,-99.99,FreeWX-Wi 1.03,2013-02-20 09:25:00,
2013-02-20 03:30:00,-18.2,-99.9,30.56,North,-999,0.0,0.0,-999,0.00,,,-99.99,FreeWX-Wi 1.03,2013-02-20 09:30:00,
2013-02-20 03:35:00,-18.0,-99.9,30.56,North,-999,0.0,0.0,-999,0.00,,,-99.99,FreeWX-Wi 1.03,2013-02-20 09:35:00,
2013-02-20 03:40:00,-17.9,-99.9,30.56,North,-999,0.0,0.0,-999,0.00,,,-99.99,FreeWX-Wi 1.03,2013-02-20 09:40:00,
2013-02-20 03:45:00,-17.9,-99.9,30.56,North,-999,0.0,0.0,-999,0.00,,,-99.99,FreeWX-Wi 1.03,2013-02-20 09:45:00,
2013-02-20 03:50:00,-17.9,-99.9,30.56,North,-999,0.0,0.0,-999,0.00,,,-99.99,FreeWX-Wi 1.03,2013-02-20 09:50:00,
2013-02-20 03:55:00,-17.7,-99.9,30.53,North,-999,0.0,0.0,-999,0.00,,,-99.99,FreeWX-Wi 1.03,2013-02-20 09:55:00,
2013-02-20 04:00:00,-17.7,-99.9,30.53,North,-999,0.0,0.0,-999,0.00,,,-99.99,FreeWX-Wi 1.03,2013-02-20 10:00:00,
2013-02-20 04:05:00,-17.7,-99.9,30.53,North,-999,0.0,0.0,-999,0.00,,,-99.99,FreeWX-Wi 1.03,2013-02-20 10:05:00,
2013-02-20 04:10:00,-17.7,-99.9,30.53,North,-999,0.0,0.0,-999,0.00,,,-99.99,FreeWX-Wi 1.03,2013-02-20 10:10:00,
2013-02-20 04:15:00,-17.7,-99.9,30.53,North,-999,0.0,0.0,-999,0.00,,,-99.99,FreeWX-Wi 1.03,2013-02-20 10:15:00,
2013-02-20 04:20:00,-17.7,-99.9,30.53,North,-999,0.0,0.0,-999,0.00,,,-99.99,FreeWX-Wi 1.03,2013-02-20 10:20:00,
2013-02-20 04:25:00,-17.7,-99.9,30.53,North,-999,0.0,0.0,-999,0.00,,,-99.99,FreeWX-Wi 1.03,2013-02-20 10:25:00,
2013-02-20 04:30:00,-17.7,-99.9,30.53,North,-999,0.0,0.0,-999,0.00,,,-99.99,FreeWX-Wi 1.03,2013-02-20 10:30:00,
2013-02-20 04:35:00,-17.5,-99.9,30.53,North,-999,0.0,0.0,-999,0.00,,,-99.99,FreeWX-Wi 1.03,2013-02-20 10:35:00,
2013-02-20 04:40:00,-17.3,-99.9,30.53,North,-999,0.0,0.0,-999,0.00,,,-99.99,FreeWX-Wi 1.03,2013-02-20 10:40:00,
2013-02-20 04:45:00,-17.3,-99.9,30.53,North,-999,0.0,0.0,-999,0.00,,,-99.99,FreeWX-Wi 1.03,2013-02-20 10:45:00,
2013-02-20 04:50:00,-17.0,-99.9,30.53,North,-999,0.0,0.0,-999,0.00,,,-99.99,FreeWX-Wi 1.03,2013-02-20 10:50:00,
2013-02-20 04:55:00,-16.8,-99.9,30.53,North,-999,0.0,0.0,-999,0.00,,,-99.99,FreeWX-Wi 1.03,2013-02-20 10:55:00,
2013-02-20 05:00:00,-16.4,-99.9,30.53,North,-999,0.0,0.0,-999,0.00,,,-99.99,FreeWX-Wi 1.03,2013-02-20 11:00:00,
2013-02-20 05:05:00,-15.5,-99.9,30.53,North,-999,0.0,4.0,-999,0.00,,,-99.99,FreeWX-Wi 1.03,2013-02-20 11:05:00,
2013-02-20 05:10:00,-14.8,-99.9,30.53,North,-999,0.0,4.0,-999,0.00,,,-99.99,FreeWX-Wi 1.03,2013-02-20 11:10:00,
2013-02-20 05:15:00,-14.4,-99.9,30.53,NNE,27,1.0,4.0,-999,0.00,,,-99.99,FreeWX-Wi 1.03,2013-02-20 11:15:00,
2013-02-20 05:20:00,-14.4,-99.9,30.53,ENE,57,1.0,3.1,-999,0.00,,,-99.99,FreeWX-Wi 1.03,2013-02-20 11:20:00,
2013-02-20 05:25:00,-14.3,-99.9,30.53,East,91,1.0,3.1,-999,0.00,,,-99.99,FreeWX-Wi 1.03,2013-02-20 11:25:00,
2013-02-20 05:30:00,-14.3,-99.9,30.53,ESE,113,1.0,3.1,-999,0.00,,,-99.99,FreeWX-Wi 1.03,2013-02-20 11:30:00,
2013-02-20 05:35:00,-14.3,-99.9,30.53,SE,125,1.0,3.1,-999,0.00,,,-99.99,FreeWX-Wi 1.03,2013-02-20 11:35:00,
2013-02-20 05:40:00,-14.3,-99.9,30.53,SE,129,1.0,2.7,-999,0.00,,,-99.99,FreeWX-Wi 1.03,2013-02-20 11:40:00,
2013-02-20 05:45:00,-14.4,-99.9,30.53,SE,131,1.0,0.0,-999,0.00,,,-99.99,FreeWX-Wi 1.03,2013-02-20 11:45:00,
2013-02-20 05:50:00,-14.6,-99.9,30.53,North,-999,0.0,0.0,-999,0.00,,,-99.99,FreeWX-Wi 1.03,2013-02-20 11:50:00,
2013-02-20 05:55:00,-14.8,-99.9,30.53,North,-999,0.0,2.7,-999,0.00,,,-99.99,FreeWX-Wi 1.03,2013-02-20 11:55:00,
2013-02-20 06:00:00,-14.6,-99.9,30.53,North,-999,0.0,4.0,-999,0.00,,,-99.99,FreeWX-Wi 1.03,2013-02-20 12:00:00,
2013-02-20 06:05:00,-14.6,-99.9,30.53,SE,132,1.0,3.6,-999,0.00,,,-99.99,FreeWX-Wi 1.03,2013-02-20 12:05:00,
2013-02-20 06:10:00,-14.8,-99.9,30.53,SE,132,1.0,4.0,-999,0.00,,,-99.99,FreeWX-Wi 1.03,2013-02-20 12:10:00,
2013-02-20 06:15:00,-15.0,-99.9,30.53,SE,129,1.0,5.4,-999,0.00,,,-99.99,FreeWX-Wi 1.03,2013-02-20 12:15:00,
2013-02-20 06:20:00,-14.8,-99.9,30.53,SE,126,2.0,6.3,-999,0.00,,,-99.99,FreeWX-Wi 1.03,2013-02-20 12:20:00,
2013-02-20 06:25:00,-14.6,-99.9,30.53,ESE,122,2.0,5.4,-999,0.00,,,-99.99,FreeWX-Wi 1.03,2013-02-20 12:25:00,
2013-02-20 06:30:00,-14.8,-99.9,30.53,ESE,120,3.0,6.3,-999,0.00,,,-99.99,FreeWX-Wi 1.03,2013-02-20 12:30:00,
2013-02-20 06:35:00,-14.8,-99.9,30.53,ESE,117,3.0,3.6,-999,0.00,,,-99.99,FreeWX-Wi 1.03,2013-02-20 12:35:00,
2013-02-20 06:40:00,-15.0,-99.9,30.53,ESE,114,3.0,4.0,-999,0.00,,,-99.99,FreeWX-Wi 1.03,2013-02-20 12:40:00,
2013-02-20 06:45:00,-15.0,-99.9,30.53,ESE,114,2.0,4.9,-999,0.00,,,-99.99,FreeWX-Wi 1.03,2013-02-20 12:45:00,
2013-02-20 06:50:00,-15.2,-99.9,30.53,ESE,115,2.0,3.6,-999,0.00,,,-99.99,FreeWX-Wi 1.03,2013-02-20 12:50:00,
2013-02-20 06:55:00,-15.2,-99.9,30.53,ESE,118,1.0,3.6,-999,0.00,,,-99.99,FreeWX-Wi 1.03,2013-02-20 12:55:00,
2013-02-20 07:00:00,-15.3,-99.9,30.53,ESE,120,1.0,3.1,-999,0.00,,,-99.99,FreeWX-Wi 1.03,2013-02-20 13:00:00,
2013-02-20 07:05:00,-15.3,-99.9,30.53,ESE,123,1.0,0.0,-999,0.00,,,-99.99,FreeWX-Wi 1.03,2013-02-20 13:05:00,
2013-02-20 07:10:00,-15.3,-99.9,30.53,SE,125,1.0,3.6,-999,0.00,,,-99.99,FreeWX-Wi 1.03,2013-02-20 13:10:00,
2013-02-20 07:15:00,-15.3,-99.9,30.53,SE,127,1.0,3.6,-999,0.00,,,-99.99,FreeWX-Wi 1.03,2013-02-20 13:15:00,
2013-02-20 07:20:00,-15.5,-99.9,30.53,SE,128,1.0,3.6,-999,0.00,,,-99.99,FreeWX-Wi 1.03,2013-02-20 13:20:00,
2013-02-20 07:25:00,-15.7,-99.9,30.53,SE,128,1.0,2.7,-999,0.00,,,-99.99,FreeWX-Wi 1.03,2013-02-20 13:25:00,
2013-02-20 07:30:00,-15.9,-99.9,30.53,SE,128,1.0,2.7,-999,0.00,,,-99.99,FreeWX-Wi 1.03,2013-02-20 13:30:00,
2013-02-20 07:35:00,-16.1,-99.9,30.53,SE,127,1.0,0.0,-999,0.00,,,-99.99,FreeWX-Wi 1.03,2013-02-20 13:35:00,
2013-02-20 07:40:00,-16.1,-99.9,30.53,SE,127,1.0,0.0,-999,0.00,,,-99.99,FreeWX-Wi 1.03,2013-02-20 13:40:00,
2013-02-20 07:46:00,-16.1,-99.9,30.53,North,-999,0.0,3.6,-999,0.00,,,-99.99,FreeWX-Wi 1.03,2013-02-20 13:46:00,
2013-02-20 07:51:00,-16.1,-99.9,30.53,North,-999,0.0,0.0,-999,0.00,,,-99.99,FreeWX-Wi 1.03,2013-02-20 13:51:00,
2013-02-20 07:56:00,-16.1,-99.9,30.53,North,-999,0.0,3.6,-999,0.00,,,-99.99,FreeWX-Wi 1.03,2013-02-20 13:56:00,
2013-02-20 08:01:00,-15.9,-99.9,30.53,North,-999,0.0,3.6,-999,0.00,,,-99.99,FreeWX-Wi 1.03,2013-02-20 14:01:00,
2013-02-20 08:06:00,-15.7,-99.9,30.53,SE,127,1.0,3.6,-999,0.00,,,-99.99,FreeWX-Wi 1.03,2013-02-20 14:06:00,
2013-02-20 08:11:00,-15.5,-99.9,30.53,SE,127,1.0,3.6,-999,0.00,,,-99.99,FreeWX-Wi 1.03,2013-02-20 14:11:00,
2013-02-20 08:16:00,-15.3,-99.9,30.53,North,-999,0.0,0.0,-999,0.00,,,-99.99,FreeWX-Wi 1.03,2013-02-20 14:16:00,
2013-02-20 08:21:00,-15.0,-99.9,30.53,North,-999,0.0,0.0,-999,0.00,,,-99.99,FreeWX-Wi 1.03,2013-02-20 14:21:00,
2013-02-20 08:26:00,-14.6,-99.9,30.53,North,-999,0.0,0.0,-999,0.00,,,-99.99,FreeWX-Wi 1.03,2013-02-20 14:26:00,
2013-02-20 08:31:00,-14.3,-99.9,30.53,North,-999,0.0,4.0,-999,0.00,,,-99.99,FreeWX-Wi 1.03,2013-02-20 14:31:00,
2013-02-20 08:36:00,-13.5,-99.9,30.53,North,-999,0.0,3.6,-999,0.00,,,-99.99,FreeWX-Wi 1.03,2013-02-20 14:36:00,
2013-02-20 08:41:00,-13.0,-99.9,30.53,SE,125,1.0,4.0,-999,0.00,,,-99.99,FreeWX-Wi 1.03,2013-02-20 14:41:00,
2013-02-20 08:46:00,-12.6,-99.9,30.53,ESE,123,2.0,4.9,-999,0.00,,,-99.99,FreeWX-Wi 1.03,2013-02-20 14:46:00,
2013-02-20 08:51:00,-12.5,-99.9,30.53,ESE,121,2.0,5.4,-999,0.00,,,-99.99,FreeWX-Wi 1.03,2013-02-20 14:51:00,
2013-02-20 08:56:00,-12.1,-99.9,30.53,ESE,118,3.0,4.9,-999,0.00,,,-99.99,FreeWX-Wi 1.03,2013-02-20 14:56:00,
2013-02-20 09:01:00,-11.7,-99.9,30.53,ESE,115,3.0,4.0,-999,0.00,,,-99.99,FreeWX-Wi 1.03,2013-02-20 15:01:00,
2013-02-20 09:06:00,-11.4,-99.9,30.53,ESE,113,3.0,5.4,-999,0.00,,,-99.99,FreeWX-Wi 1.03,2013-02-20 15:06:00,
2013-02-20 09:11:00,-10.8,-99.9,30.53,ESE,112,3.0,4.9,-999,0.00,,,-99.99,FreeWX-Wi 1.03,2013-02-20 15:11:00,
2013-02-20 09:16:00,-10.1,-99.9,30.53,ESE,110,3.0,4.9,-999,0.00,,,-99.99,FreeWX-Wi 1.03,2013-02-20 15:16:00,
2013-02-20 09:21:00,-9.4,-99.9,30.53,ESE,110,3.0,4.0,-999,0.00,,,-99.99,FreeWX-Wi 1.03,2013-02-20 15:21:00,
2013-02-20 09:26:00,-8.7,-99.9,30.53,ESE,113,3.0,4.0,-999,0.00,,,-99.99,FreeWX-Wi 1.03,2013-02-20 15:26:00,
2013-02-20 09:31:00,-8.0,-99.9,30.53,ESE,115,3.0,4.0,-999,0.00,,,-99.99,FreeWX-Wi 1.03,2013-02-20 15:31:00,
2013-02-20 09:36:00,-8.0,-99.9,30.53,ESE,119,3.0,4.9,-999,0.00,,,-99.99,FreeWX-Wi 1.03,2013-02-20 15:36:00,
2013-02-20 09:41:00,-7.4,-99.9,30.53,ESE,123,3.0,5.8,-999,0.00,,,-99.99,FreeWX-Wi 1.03,2013-02-20 15:41:00,
2013-02-20 09:46:00,-7.8,-99.9,30.53,SE,128,3.0,7.6,-999,0.00,,,-99.99,FreeWX-Wi 1.03,2013-02-20 15:46:00,
2013-02-20 09:51:00,-7.4,-99.9,30.53,SE,130,4.0,7.6,-999,0.00,,,-99.99,FreeWX-Wi 1.03,2013-02-20 15:51:00,
2013-02-20 09:56:00,-6.5,-99.9,30.53,SE,131,4.0,6.3,-999,0.00,,,-99.99,FreeWX-Wi 1.03,2013-02-20 15:56:00,
2013-02-20 10:01:00,-6.3,-99.9,30.53,SE,132,4.0,6.3,-999,0.00,,,-99.99,FreeWX-Wi 1.03,2013-02-20 16:01:00,
2013-02-20 10:06:00,-5.4,-99.9,30.53,SE,130,4.0,5.8,-999,0.00,,,-99.99,FreeWX-Wi 1.03,2013-02-20 16:06:00,
2013-02-20 10:11:00,-5.3,-99.9,30.50,SE,129,4.0,5.4,-999,0.00,,,-99.99,FreeWX-Wi 1.03,2013-02-20 16:11:00,
2013-02-20 10:16:00,-4.2,-99.9,30.50,SE,129,4.0,5.4,-999,0.00,,,-99.99,FreeWX-Wi 1.03,2013-02-20 16:16:00,
2013-02-20 10:21:00,-3.1,-99.9,30.50,SE,128,4.0,5.8,-999,0.00,,,-99.99,FreeWX-Wi 1.03,2013-02-20 16:21:00,
2013-02-20 10:26:00,-2.4,-99.9,30.50,SE,129,4.0,5.4,-999,0.00,,,-99.99,FreeWX-Wi 1.03,2013-02-20 16:26:00,
2013-02-20 10:31:00,-1.8,-99.9,30.50,SE,131,3.0,5.4,-999,0.00,,,-99.99,FreeWX-Wi 1.03,2013-02-20 16:31:00,
2013-02-20 10:36:00,-1.8,-99.9,30.50,SE,130,4.0,6.3,-999,0.00,,,-99.99,FreeWX-Wi 1.03,2013-02-20 16:36:00,
2013-02-20 10:41:00,-1.8,-99.9,30.50,SE,133,3.0,5.4,-999,0.00,,,-99.99,FreeWX-Wi 1.03,2013-02-20 16:41:00,
2013-02-20 10:46:00,-1.5,-99.9,30.50,SE,132,3.0,5.8,-999,0.00,,,-99.99,FreeWX-Wi 1.03,2013-02-20 16:46:00,
2013-02-20 10:51:00,-2.2,-99.9,30.50,SE,132,4.0,6.3,-999,0.00,,,-99.99,FreeWX-Wi 1.03,2013-02-20 16:51:00,
2013-02-20 10:56:00,-3.6,-99.9,30.50,SE,129,4.0,7.6,-999,0.00,,,-99.99,FreeWX-Wi 1.03,2013-02-20 16:56:00,
2013-02-20 11:01:00,-3.6,-99.9,30.50,SE,130,4.0,8.1,-999,0.00,,,-99.99,FreeWX-Wi 1.03,2013-02-20 17:01:00,
2013-02-20 11:06:00,-4.0,-99.9,30.50,SE,131,4.0,8.1,-999,0.00,,,-99.99,FreeWX-Wi 1.03,2013-02-20 17:06:00,
2013-02-20 11:11:00,-4.2,-99.9,30.50,SE,130,5.0,7.6,-999,0.00,,,-99.99,FreeWX-Wi 1.03,2013-02-20 17:11:00,
2013-02-20 11:16:00,-4.2,-99.9,30.50,SE,129,5.0,7.6,-999,0.00,,,-99.99,FreeWX-Wi 1.03,2013-02-20 17:16:00,
2013-02-20 11:21:00,-3.5,-99.9,30.50,SE,129,5.0,6.3,-999,0.00,,,-99.99,FreeWX-Wi 1.03,2013-02-20 17:21:00,
2013-02-20 11:26:00,-3.5,-99.9,30.50,SE,131,5.0,7.2,-999,0.00,,,-99.99,FreeWX-Wi 1.03,2013-02-20 17:26:00,
2013-02-20 11:31:00,-3.5,-99.9,30.50,SE,130,5.0,8.3,-999,0.00,,,-99.99,FreeWX-Wi 1.03,2013-02-20 17:31:00,
2013-02-20 11:36:00,-3.5,-99.9,30.50,SE,131,5.0,8.7,-999,0.00,,,-99.99,FreeWX-Wi 1.03,2013-02-20 17:36:00,
2013-02-20 11:41:00,-2.7,-99.9,30.50,SE,131,5.0,7.6,-999,0.00,,,-99.99,FreeWX-Wi 1.03,2013-02-20 17:41:00,
2013-02-20 11:46:00,-2.6,-99.9,30.50,SE,132,5.0,6.3,-999,0.00,,,-99.99,FreeWX-Wi 1.03,2013-02-20 17:46:00,
2013-02-20 11:51:00,-3.1,-99.9,30.50,SE,133,5.0,9.6,-999,0.00,,,-99.99,FreeWX-Wi 1.03,2013-02-20 17:51:00,
2013-02-20 11:56:00,-3.3,-99.9,30.50,SE,130,6.0,8.7,-999,0.00,,,-99.99,FreeWX-Wi 1.03,2013-02-20 17:56:00,
2013-02-20 12:01:00,-3.5,-99.9,30.50,SE,129,6.0,10.1,-999,0.00,,,-99.99,FreeWX-Wi 1.03,2013-02-20 18:01:00,
2013-02-20 12:06:00,-2.2,-99.9,30.50,SE,129,6.0,8.1,-999,0.00,,,-99.99,FreeWX-Wi 1.03,2013-02-20 18:06:00,
2013-02-20 12:11:00,-1.5,-99.9,30.50,SE,130,6.0,8.1,-999,0.00,,,-99.99,FreeWX-Wi 1.03,2013-02-20 18:11:00,
2013-02-20 12:16:00,-0.4,-99.9,30.50,SE,128,6.0,8.3,-999,0.00,,,-99.99,FreeWX-Wi 1.03,2013-02-20 18:16:00,
2013-02-20 12:21:00,-1.3,-99.9,30.50,SE,127,6.0,8.7,-999,0.00,,,-99.99,FreeWX-Wi 1.03,2013-02-20 18:21:00,
2013-02-20 12:26:00,-1.8,-99.9,30.50,SE,126,6.0,10.1,-999,0.00,,,-99.99,FreeWX-Wi 1.03,2013-02-20 18:26:00,
2013-02-20 12:31:00,-2.0,-99.9,30.50,SE,124,6.0,8.7,-999,0.00,,,-99.99,FreeWX-Wi 1.03,2013-02-20 18:31:00,
2013-02-20 12:36:00,-2.2,-99.9,30.50,ESE,123,6.0,7.6,-999,0.00,,,-99.99,FreeWX-Wi 1.03,2013-02-20 18:36:00,
2013-02-20 12:41:00,-1.5,-99.9,30.47,ESE,123,6.0,8.1,-999,0.00,,,-99.99,FreeWX-Wi 1.03,2013-02-20 18:41:00,
2013-02-20 12:46:00,-1.1,-99.9,30.47,ESE,123,6.0,8.7,-999,0.00,,,-99.99,FreeWX-Wi 1.03,2013-02-20 18:46:00,
2013-02-20 12:51:00,-0.6,-99.9,30.47,ESE,123,6.0,8.1,-999,0.00,,,-99.99,FreeWX-Wi 1.03,2013-02-20 18:51:00,
2013-02-20 13:01:00,-0.9,-99.9,30.47,SE,126,6.0,8.7,-999,0.00,,,-99.99,FreeWX-Wi 1.03,2013-02-20 19:01:00,
2013-02-20 13:11:00,-0.6,-99.9,30.47,ESE,123,6.0,10.1,-999,0.00,,,-99.99,FreeWX-Wi 1.03,2013-02-20 19:11:00,
2013-02-20 13:16:00,-0.8,-99.9,30.47,SE,125,6.0,8.7,-999,0.00,,,-99.99,FreeWX-Wi 1.03,2013-02-20 19:16:00,
2013-02-20 13:21:00,-1.3,-99.9,30.47,ESE,123,6.0,8.7,-999,0.00,,,-99.99,FreeWX-Wi 1.03,2013-02-20 19:21:00,
2013-02-20 13:26:00,-1.1,-99.9,30.47,SE,124,6.0,11.0,-999,0.00,,,-99.99,FreeWX-Wi 1.03,2013-02-20 19:26:00,
2013-02-20 13:31:00,-1.3,-99.9,30.47,SE,124,6.0,8.7,-999,0.00,,,-99.99,FreeWX-Wi 1.03,2013-02-20 19:31:00,
2013-02-20 13:36:00,-1.8,-99.9,30.47,SE,126,7.0,10.1,-999,0.00,,,-99.99,FreeWX-Wi 1.03,2013-02-20 19:36:00,
2013-02-20 13:41:00,-1.8,-99.9,30.47,SE,126,7.0,10.1,-999,0.00,,,-99.99,FreeWX-Wi 1.03,2013-02-20 19:41:00,
2013-02-20 13:46:00,-1.3,-99.9,30.47,SE,125,7.0,10.5,-999,0.00,,,-99.99,FreeWX-Wi 1.03,2013-02-20 19:46:00,
2013-02-20 13:51:00,-0.8,-99.9,30.47,SE,125,7.0,8.1,-999,0.00,,,-99.99,FreeWX-Wi 1.03,2013-02-20 19:51:00,
2013-02-20 13:56:00,-0.8,-99.9,30.47,SE,124,7.0,8.7,-999,0.00,,,-99.99,FreeWX-Wi 1.03,2013-02-20 19:56:00,
2013-02-20 14:01:00,-0.9,-99.9,30.47,ESE,123,6.0,8.3,-999,0.00,,,-99.99,FreeWX-Wi 1.03,2013-02-20 20:01:00,
2013-02-20 14:06:00,-1.1,-99.9,30.47,ESE,123,6.0,8.1,-999,0.00,,,-99.99,FreeWX-Wi 1.03,2013-02-20 20:06:00,
2013-02-20 14:11:00,-1.7,-99.9,30.47,ESE,122,6.0,7.6,-999,0.00,,,-99.99,FreeWX-Wi 1.03,2013-02-20 20:11:00,
2013-02-20 14:16:00,-2.2,-99.9,30.47,ESE,123,6.0,8.7,-999,0.00,,,-99.99,FreeWX-Wi 1.03,2013-02-20 20:16:00,
2013-02-20 14:21:00,-1.8,-99.9,30.47,ESE,122,6.0,8.3,-999,0.00,,,-99.99,FreeWX-Wi 1.03,2013-02-20 20:21:00,
2013-02-20 14:26:00,-1.3,-99.9,30.47,SE,124,6.0,8.3,-999,0.00,,,-99.99,FreeWX-Wi 1.03,2013-02-20 20:26:00,
2013-02-20 14:31:00,-1.3,-99.9,30.47,SE,125,6.0,10.1,-999,0.00,,,-99.99,FreeWX-Wi 1.03,2013-02-20 20:31:00,
2013-02-20 14:36:00,-0.8,-99.9,30.47,SE,126,6.0,8.7,-999,0.00,,,-99.99,FreeWX-Wi 1.03,2013-02-20 20:36:00,
2013-02-20 14:41:00,-0.9,-99.9,30.47,SE,127,6.0,7.6,-999,0.00,,,-99.99,FreeWX-Wi 1.03,2013-02-20 20:41:00,
2013-02-20 14:46:00,-0.8,-99.9,30.47,SE,129,5.0,6.3,-999,0.00,,,-99.99,FreeWX-Wi 1.03,2013-02-20 20:46:00,
2013-02-20 14:51:00,-0.9,-99.9,30.47,SE,128,5.0,7.6,-999,0.00,,,-99.99,FreeWX-Wi 1.03,2013-02-20 20:51:00,
2013-02-20 14:56:00,-1.8,-99.9,30.47,SE,127,5.0,8.7,-999,0.00,,,-99.99,FreeWX-Wi 1.03,2013-02-20 20:56:00,
2013-02-20 15:01:00,-2.2,-99.9,30.47,SE,126,5.0,8.3,-999,0.00,,,-99.99,FreeWX-Wi 1.03,2013-02-20 21:01:00,
2013-02-20 15:06:00,-2.2,-99.9,30.47,SE,125,5.0,8.7,-999,0.00,,,-99.99,FreeWX-Wi 1.03,2013-02-20 21:06:00,
2013-02-20 15:11:00,-2.0,-99.9,30.47,SE,124,5.0,7.6,-999,0.00,,,-99.99,FreeWX-Wi 1.03,2013-02-20 21:11:00,
2013-02-20 15:16:00,-1.8,-99.9,30.47,ESE,122,5.0,7.2,-999,0.00,,,-99.99,FreeWX-Wi 1.03,2013-02-20 21:16:00,
2013-02-20 15:21:00,-1.5,-99.9,30.47,ESE,122,6.0,8.3,-999,0.00,,,-99.99,FreeWX-Wi 1.03,2013-02-20 21:21:00,
2013-02-20 15:26:00,-1.7,-99.9,30.47,ESE,123,6.0,8.1,-999,0.00,,,-99.99,FreeWX-Wi 1.03,2013-02-20 21:26:00,
2013-02-20 15:31:00,-1.8,-99.9,30.47,SE,125,6.0,7.6,-999,0.00,,,-99.99,FreeWX-Wi 1.03,2013-02-20 21:31:00,
2013-02-20 15:36:00,-2.2,-99.9,30.47,SE,126,6.0,8.3,-999,0.00,,,-99.99,FreeWX-Wi 1.03,2013-02-20 21:36:00,
2013-02-20 15:41:00,-2.0,-99.9,30.47,SE,127,5.0,6.7,-999,0.00,,,-99.99,FreeWX-Wi 1.03,2013-02-20 21:41:00,
2013-02-20 15:46:00,-1.8,-99.9,30.47,SE,129,5.0,7.6,-999,0.00,,,-99.99,FreeWX-Wi 1.03,2013-02-20 21:46:00,
2013-02-20 15:51:00,-1.3,-99.9,30.47,SE,130,5.0,7.2,-999,0.00,,,-99.99,FreeWX-Wi 1.03,2013-02-20 21:51:00,
2013-02-20 15:56:00,-1.1,-99.9,30.47,SE,129,5.0,5.8,-999,0.00,,,-99.99,FreeWX-Wi 1.03,2013-02-20 21:56:00,
2013-02-20 16:01:00,-1.3,-99.9,30.47,SE,127,4.0,5.8,-999,0.00,,,-99.99,FreeWX-Wi 1.03,2013-02-20 22:01:00,
2013-02-20 16:06:00,-1.8,-99.9,30.47,SE,126,4.0,8.3,-999,0.00,,,-99.99,FreeWX-Wi 1.03,2013-02-20 22:06:00,
2013-02-20 16:11:00,-2.2,-99.9,30.47,SE,124,5.0,8.3,-999,0.00,,,-99.99,FreeWX-Wi 1.03,2013-02-20 22:11:00,
2013-02-20 16:16:00,-2.4,-99.9,30.47,ESE,123,5.0,8.3,-999,0.00,,,-99.99,FreeWX-Wi 1.03,2013-02-20 22:16:00,
2013-02-20 16:21:00,-2.4,-99.9,30.47,ESE,123,5.0,6.7,-999,0.00,,,-99.99,FreeWX-Wi 1.03,2013-02-20 22:21:00,
2013-02-20 16:26:00,-2.9,-99.9,30.44,ESE,122,5.0,8.3,-999,0.00,,,-99.99,FreeWX-Wi 1.03,2013-02-20 22:26:00,
2013-02-20 16:31:00,-2.9,-99.9,30.44,ESE,122,6.0,8.1,-999,0.00,,,-99.99,FreeWX-Wi 1.03,2013-02-20 22:31:00,
2013-02-20 16:36:00,-2.9,-99.9,30.44,ESE,121,6.0,7.6,-999,0.00,,,-99.99,FreeWX-Wi 1.03,2013-02-20 22:36:00,
2013-02-20 16:41:00,-2.7,-99.9,30.44,ESE,122,5.0,8.1,-999,0.00,,,-99.99,FreeWX-Wi 1.03,2013-02-20 22:41:00,
2013-02-20 16:46:00,-2.9,-99.9,30.44,ESE,123,5.0,7.6,-999,0.00,,,-99.99,FreeWX-Wi 1.03,2013-02-20 22:46:00,
2013-02-20 16:51:00,-3.1,-99.9,30.44,ESE,123,5.0,7.6,-999,0.00,,,-99.99,FreeWX-Wi 1.03,2013-02-20 22:51:00,
2013-02-20 16:56:00,-2.9,-99.9,30.44,SE,124,5.0,6.3,-999,0.00,,,-99.99,FreeWX-Wi 1.03,2013-02-20 22:56:00,
2013-02-20 17:01:00,-3.1,-99.9,30.44,SE,125,5.0,5.8,-999,0.00,,,-99.99,FreeWX-Wi 1.03,2013-02-20 23:01:00,
2013-02-20 17:06:00,-3.1,-99.9,30.44,SE,126,4.0,7.2,-999,0.00,,,-99.99,FreeWX-Wi 1.03,2013-02-20 23:06:00,
2013-02-20 17:11:00,-3.3,-99.9,30.44,SE,127,5.0,6.3,-999,0.00,,,-99.99,FreeWX-Wi 1.03,2013-02-20 23:11:00,
2013-02-20 17:16:00,-3.5,-99.9,30.44,SE,127,5.0,8.1,-999,0.00,,,-99.99,FreeWX-Wi 1.03,2013-02-20 23:16:00,
2013-02-20 17:21:00,-3.5,-99.9,30.44,SE,126,5.0,7.6,-999,0.00,,,-99.99,FreeWX-Wi 1.03,2013-02-20 23:21:00,
2013-02-20 17:26:00,-3.5,-99.9,30.44,SE,127,5.0,7.6,-999,0.00,,,-99.99,FreeWX-Wi 1.03,2013-02-20 23:26:00,
2013-02-20 17:31:00,-3.5,-99.9,30.44,SE,129,5.0,6.3,-999,0.00,,,-99.99,FreeWX-Wi 1.03,2013-02-20 23:31:00,
2013-02-20 17:36:00,-3.5,-99.9,30.44,SE,129,5.0,8.1,-999,0.00,,,-99.99,FreeWX-Wi 1.03,2013-02-20 23:36:00,
2013-02-20 17:41:00,-3.5,-99.9,30.41,SE,129,5.0,8.1,-999,0.00,,,-99.99,FreeWX-Wi 1.03,2013-02-20 23:41:00,
2013-02-20 17:46:00,-3.5,-99.9,30.41,SE,129,5.0,8.1,-999,0.00,,,-99.99,FreeWX-Wi 1.03,2013-02-20 23:46:00,
2013-02-20 17:51:00,-3.5,-99.9,30.41,SE,129,5.0,6.3,-999,0.00,,,-99.99,FreeWX-Wi 1.03,2013-02-20 23:51:00,
2013-02-20 17:56:00,-3.5,-99.9,30.41,SE,129,5.0,6.7,-999,0.00,,,-99.99,FreeWX-Wi 1.03,2013-02-20 23:56:00,
2013-02-20 18:01:00,-3.5,-99.9,30.41,SE,127,5.0,6.3,-999,0.00,,,-99.99,FreeWX-Wi 1.03,2013-02-21 00:01:00,
2013-02-20 18:06:00,-3.3,-99.9,30.41,SE,127,5.0,6.3,-999,0.00,,,-99.99,FreeWX-Wi 1.03,2013-02-21 00:06:00,
2013-02-20 18:11:00,-3.3,-99.9,30.41,SE,127,4.0,6.3,-999,0.00,,,-99.99,FreeWX-Wi 1.03,2013-02-21 00:11:00,
2013-02-20 18:16:00,-3.1,-99.9,30.41,SE,127,4.0,5.8,-999,0.00,,,-99.99,FreeWX-Wi 1.03,2013-02-21 00:16:00,
2013-02-20 18:21:00,-3.1,-99.9,30.41,SE,127,4.0,6.3,-999,0.00,,,-99.99,FreeWX-Wi 1.03,2013-02-21 00:21:00,
2013-02-20 18:26:00,-3.1,-99.9,30.41,SE,126,4.0,8.3,-999,0.00,,,-99.99,FreeWX-Wi 1.03,2013-02-21 00:26:00,
2013-02-20 18:31:00,-2.9,-99.9,30.41,SE,127,4.0,6.3,-999,0.00,,,-99.99,FreeWX-Wi 1.03,2013-02-21 00:31:00,
2013-02-20 18:36:00,-2.6,-99.9,30.41,SE,128,4.0,6.3,-999,0.00,,,-99.99,FreeWX-Wi 1.03,2013-02-21 00:36:00,
2013-02-20 18:41:00,-2.4,-99.9,30.41,SE,127,4.0,6.3,-999,0.00,,,-99.99,FreeWX-Wi 1.03,2013-02-21 00:41:00,
2013-02-20 18:46:00,-2.2,-99.9,30.41,SE,129,5.0,7.6,-999,0.00,,,-99.99,FreeWX-Wi 1.03,2013-02-21 00:46:00,
2013-02-20 18:51:00,-2.2,-99.9,30.41,SE,132,4.0,4.9,-999,0.00,,,-99.99,FreeWX-Wi 1.03,2013-02-21 00:51:00,
2013-02-20 18:56:00,-2.0,-99.9,30.41,SE,133,4.0,6.3,-999,0.00,,,-99.99,FreeWX-Wi 1.03,2013-02-21 00:56:00,
2013-02-20 19:01:00,-1.8,-99.9,30.41,SE,134,4.0,5.8,-999,0.00,,,-99.99,FreeWX-Wi 1.03,2013-02-21 01:01:00,
2013-02-20 19:06:00,-1.8,-99.9,30.41,SE,136,4.0,4.9,-999,0.00,,,-99.99,FreeWX-Wi 1.03,2013-02-21 01:06:00,
2013-02-20 19:11:00,-1.8,-99.9,30.41,SE,139,3.0,4.9,-999,0.00,,,-99.99,FreeWX-Wi 1.03,2013-02-21 01:11:00,
2013-02-20 19:16:00,-1.8,-99.9,30.41,SE,141,3.0,4.9,-999,0.00,,,-99.99,FreeWX-Wi 1.03,2013-02-21 01:16:00,
2013-02-20 19:21:00,-2.2,-99.9,30.41,SE,143,3.0,5.4,-999,0.00,,,-99.99,FreeWX-Wi 1.03,2013-02-21 01:21:00,
2013-02-20 19:26:00,-2.2,-99.9,30.41,SE,144,3.0,5.8,-999,0.00,,,-99.99,FreeWX-Wi 1.03,2013-02-21 01:26:00,
2013-02-20 19:31:00,-2.2,-99.9,30.41,SE,143,3.0,6.7,-999,0.00,,,-99.99,FreeWX-Wi 1.03,2013-02-21 01:31:00,
2013-02-20 19:36:00,-2.2,-99.9,30.41,SE,140,4.0,6.3,-999,0.00,,,-99.99,FreeWX-Wi 1.03,2013-02-21 01:36:00,
2013-02-20 19:41:00,-2.2,-99.9,30.39,SE,137,4.0,6.3,-999,0.00,,,-99.99,FreeWX-Wi 1.03,2013-02-21 01:41:00,
2013-02-20 19:46:00,-2.2,-99.9,30.39,SE,135,4.0,6.3,-999,0.00,,,-99.99,FreeWX-Wi 1.03,2013-02-21 01:46:00,
2013-02-20 19:51:00,-2.0,-99.9,30.39,SE,133,4.0,5.8,-999,0.00,,,-99.99,FreeWX-Wi 1.03,2013-02-21 01:51:00,
2013-02-20 19:56:00,-1.8,-99.9,30.39,SE,133,4.0,6.3,-999,0.00,,,-99.99,FreeWX-Wi 1.03,2013-02-21 01:56:00,
2013-02-20 20:01:00,-1.8,-99.9,30.39,SE,134,4.0,6.7,-999,0.00,,,-99.99,FreeWX-Wi 1.03,2013-02-21 02:01:00,
2013-02-20 20:06:00,-1.5,-99.9,30.39,SE,134,4.0,6.3,-999,0.00,,,-99.99,FreeWX-Wi 1.03,2013-02-21 02:06:00,
2013-02-20 20:11:00,-1.1,-99.9,30.39,SE,134,4.0,6.3,-999,0.00,,,-99.99,FreeWX-Wi 1.03,2013-02-21 02:11:00,
2013-02-20 20:16:00,-0.9,-99.9,30.39,SE,134,4.0,6.3,-999,0.00,,,-99.99,FreeWX-Wi 1.03,2013-02-21 02:16:00,
2013-02-20 20:21:00,-0.8,-99.9,30.39,SE,135,4.0,5.8,-999,0.00,,,-99.99,FreeWX-Wi 1.03,2013-02-21 02:21:00,
2013-02-20 20:26:00,-0.6,-99.9,30.39,SE,136,4.0,5.4,-999,0.00,,,-99.99,FreeWX-Wi 1.03,2013-02-21 02:26:00,
2013-02-20 20:31:00,-0.4,-99.9,30.39,SE,137,4.0,4.9,-999,0.00,,,-99.99,FreeWX-Wi 1.03,2013-02-21 02:31:00,
2013-02-20 20:36:00,-0.2,-99.9,30.39,SE,138,4.0,6.3,-999,0.00,,,-99.99,FreeWX-Wi 1.03,2013-02-21 02:36:00,
2013-02-20 20:46:00,0.1,-99.9,30.39,SE,139,4.0,6.3,-999,0.00,,,-99.99,FreeWX-Wi 1.03,2013-02-21 02:46:00,
2013-02-20 20:51:00,0.3,-99.9,30.39,SE,139,4.0,6.3,-999,0.00,,,-99.99,FreeWX-Wi 1.03,2013-02-21 02:51:00,
2013-02-20 20:56:00,0.3,-99.9,30.39,SE,138,4.0,6.3,-999,0.00,,,-99.99,FreeWX-Wi 1.03,2013-02-21 02:56:00,
2013-02-20 21:01:00,0.3,-99.9,30.39,SE,138,4.0,8.1,-999,0.00,,,-99.99,FreeWX-Wi 1.03,2013-02-21 03:01:00,
2013-02-20 21:06:00,0.3,-99.9,30.39,SE,138,4.0,8.1,-999,0.00,,,-99.99,FreeWX-Wi 1.03,2013-02-21 03:06:00,
2013-02-20 21:11:00,0.5,-99.9,30.39,SE,137,5.0,6.3,-999,0.00,,,-99.99,FreeWX-Wi 1.03,2013-02-21 03:11:00,
2013-02-20 21:16:00,0.7,-99.9,30.39,SE,134,5.0,7.6,-999,0.00,,,-99.99,FreeWX-Wi 1.03,2013-02-21 03:16:00,
2013-02-20 21:21:00,0.7,-99.9,30.39,SE,133,5.0,6.3,-999,0.00,,,-99.99,FreeWX-Wi 1.03,2013-02-21 03:21:00,
2013-02-20 21:26:00,0.7,-99.9,30.36,SE,131,5.0,7.6,-999,0.00,,,-99.99,FreeWX-Wi 1.03,2013-02-21 03:26:00,
2013-02-20 21:31:00,0.7,-99.9,30.36,SE,130,5.0,8.1,-999,0.00,,,-99.99,FreeWX-Wi 1.03,2013-02-21 03:31:00,
2013-02-20 21:36:00,0.7,-99.9,30.36,SE,129,5.0,7.6,-999,0.00,,,-99.99,FreeWX-Wi 1.03,2013-02-21 03:36:00,
2013-02-20 21:41:00,0.7,-99.9,30.36,SE,129,5.0,7.6,-999,0.00,,,-99.99,FreeWX-Wi 1.03,2013-02-21 03:41:00,
2013-02-20 21:46:00,0.9,-99.9,30.36,SE,131,5.0,7.6,-999,0.00,,,-99.99,FreeWX-Wi 1.03,2013-02-21 03:46:00,
2013-02-20 21:52:00,0.7,-99.9,30.36,SE,131,5.0,6.3,-999,0.00,,,-99.99,FreeWX-Wi 1.03,2013-02-21 03:52:00,
2013-02-20 22:02:00,1.0,-99.9,30.36,SE,131,4.0,8.1,-999,0.00,,,-99.99,FreeWX-Wi 1.03,2013-02-21 04:02:00,
2013-02-20 22:07:00,1.0,-99.9,30.36,SE,133,4.0,6.3,-999,0.00,,,-99.99,FreeWX-Wi 1.03,2013-02-21 04:07:00,
2013-02-20 22:12:00,1.0,-99.9,30.39,SE,137,4.0,5.4,-999,0.00,,,-99.99,FreeWX-Wi 1.03,2013-02-21 04:12:00,
2013-02-20 22:17:00,1.0,-99.9,30.39,SE,140,4.0,6.3,-999,0.00,,,-99.99,FreeWX-Wi 1.03,2013-02-21 04:17:00,
2013-02-20 22:22:00,1.2,-99.9,30.39,SE,144,4.0,6.3,-999,0.00,,,-99.99,FreeWX-Wi 1.03,2013-02-21 04:22:00,
2013-02-20 22:27:00,1.2,-99.9,30.39,SE,146,4.0,6.3,-999,0.00,,,-99.99,FreeWX-Wi 1.03,2013-02-21 04:27:00,
2013-02-20 22:32:00,1.2,-99.9,30.39,SE,145,4.0,8.1,-999,0.00,,,-99.99,FreeWX-Wi 1.03,2013-02-21 04:32:00,
2013-02-20 22:37:00,1.2,-99.9,30.39,SE,143,4.0,6.3,-999,0.00,,,-99.99,FreeWX-Wi 1.03,2013-02-21 04:37:00,
2013-02-20 22:42:00,1.4,-99.9,30.36,SE,139,4.0,7.2,-999,0.00,,,-99.99,FreeWX-Wi 1.03,2013-02-21 04:42:00,
2013-02-20 22:47:00,1.6,-99.9,30.36,SE,136,5.0,6.3,-999,0.00,,,-99.99,FreeWX-Wi 1.03,2013-02-21 04:47:00,
2013-02-20 22:52:00,1.6,-99.9,30.36,SE,133,5.0,7.6,-999,0.00,,,-99.99,FreeWX-Wi 1.03,2013-02-21 04:52:00,
2013-02-20 22:57:00,1.8,-99.9,30.36,SE,131,5.0,7.6,-999,0.00,,,-99.99,FreeWX-Wi 1.03,2013-02-21 04:57:00,
2013-02-20 23:02:00,1.9,-99.9,30.36,SE,131,5.0,8.1,-999,0.00,,,-99.99,FreeWX-Wi 1.03,2013-02-21 05:02:00,
2013-02-20 23:07:00,2.1,-99.9,30.36,SE,130,5.0,8.7,-999,0.00,,,-99.99,FreeWX-Wi 1.03,2013-02-21 05:07:00,
2013-02-20 23:12:00,2.3,-99.9,30.39,SE,132,5.0,7.6,-999,0.00,,,-99.99,FreeWX-Wi 1.03,2013-02-21 05:12:00,
2013-02-20 23:17:00,2.5,-99.9,30.39,SE,132,5.0,7.6,-999,0.00,,,-99.99,FreeWX-Wi 1.03,2013-02-21 05:17:00,
2013-02-20 23:22:00,2.5,-99.9,30.39,SE,133,5.0,8.3,-999,0.00,,,-99.99,FreeWX-Wi 1.03,2013-02-21 05:22:00,
2013-02-20 23:27:00,2.5,-99.9,30.39,SE,134,5.0,8.1,-999,0.00,,,-99.99,FreeWX-Wi 1.03,2013-02-21 05:27:00,
2013-02-20 23:32:00,2.7,-99.9,30.39,SE,134,5.0,7.6,-999,0.00,,,-99.99,FreeWX-Wi 1.03,2013-02-21 05:32:00,
2013-02-20 23:37:00,2.5,-99.9,30.39,SE,134,5.0,8.3,-999,0.00,,,-99.99,FreeWX-Wi 1.03,2013-02-21 05:37:00,
2013-02-20 23:42:00,2.5,-99.9,30.39,SE,133,5.0,8.1,-999,0.00,,,-99.99,FreeWX-Wi 1.03,2013-02-21 05:42:00,
2013-02-20 23:47:00,2.7,-99.9,30.39,SE,132,6.0,7.2,-999,0.00,,,-99.99,FreeWX-Wi 1.03,2013-02-21 05:47:00,
2013-02-20 23:52:00,2.7,-99.9,30.39,SE,133,6.0,6.7,-999,0.00,,,-99.99,FreeWX-Wi 1.03,2013-02-21 05:52:00,
2013-02-20 23:57:00,2.8,-99.9,30.36,SE,132,5.0,7.6,-999,0.00,,,-99.99,FreeWX-Wi 1.03,2013-02-21 05:57:00,